Regional Weather Roundup
Issued by NWS

Home | Current Version | Previous Version | Text Only | Print | Product List | Glossary Off
Versions: 1 2 3 4 5 6 7 8 9 10 11 12 13 14 15 16 17 18 19 20 21 22 23 24 25 26 27 28 29 30 31 32 33 34 35 36 37 38 39 40 41 42 43 44 45 46 47 48 49 50

000
ASUS43 KMKX 060400
RWRWI

WISCONSIN REGIONAL WEATHER ROUNDUP
NATIONAL WEATHER SERVICE MILWAUKEE/SULLIVAN WI
1100 PM CDT THU MAY 05 2016

NOTE: "FAIR" INDICATES FEW OR NO CLOUDS BELOW 12,000 FEET WITH NO
SIGNIFICANT WEATHER AND/OR OBSTRUCTIONS TO VISIBILITY.

WIZ001-002-006>008-014>016-023>028-060500-
NORTHWEST WISCONSIN

CITY           SKY/WX    TMP DP  RH WIND       PRES   REMARKS
SUPERIOR ARPT  CLEAR     66  41  40 SW8       29.78S
ASHLAND        CLEAR     62  40  44 S9        29.81F
HAYWARD        CLEAR     59  39  47 S6        29.86S
SIREN          CLEAR     63  38  39 S5        29.85F
CUMBERLAND     CLEAR     55  37  50 S5        29.88S
RICE LAKE      CLEAR     58  38  48 S5        29.90S
CHETEK         CLEAR     54  41  61 E8        29.89S
LADYSMITH      CLEAR     58  39  48 S5        29.91S
EAU CLAIRE     NOT AVBL
MENOMONIE      CLEAR     57  42  56 CALM      29.90S
NEW RICHMOND   CLEAR     58  41  52 S5        29.88F
OSCEOLA        CLEAR     60  40  48 S6        29.90S
$$

WIZ003>005-009-010-017-018-060500-
NORTH CENTRAL WISCONSIN

CITY           SKY/WX    TMP DP  RH WIND       PRES   REMARKS
MANITOWISH WTR CLEAR     53  39  59 S5        29.90S
ARBOR VITAE    CLEAR     53  40  62 S3        29.91S
WOODRUFF       CLEAR     53  40  62 S3        29.91S
RHINELANDER    CLEAR     52  38  58 S6        29.92F
EAGLE RIVER    CLEAR     47  37  66 CALM      29.91S
LAND O LAKES   CLEAR     56  37  50 S3        29.91S
PHILLIPS       PTCLDY    55  39  55 S5        29.90R
TOMAHAWK       CLEAR     50  40  68 CALM      29.93R
MEDFORD        PTCLDY    55  40  57 S5        29.91F
MERRILL        NOT AVBL
$$

WIZ029-030-035-036-043>047-060500-
CENTRAL WISCONSIN

CITY           SKY/WX    TMP DP  RH WIND       PRES   REMARKS
WAUSAU         PTCLDY    57  46  66 S3        29.92S
MOSINEE        CLOUDY    54  41  62 SE3       29.95S
MARSHFIELD     CLOUDY    57  39  51 S5        29.92S
STEVENS POINT  MOCLDY    48  39  69 CALM      29.95S HAZE
WAUPACA        CLEAR     52  35  52 CALM      29.95R
WAUTOMA        NOT AVBL
WISC RAPIDS    MOCLDY    54  41  61 S3        29.94F
CAMP DOUGLAS   NOT AVBL
$$

WIZ011>013-019>022-031-037>040-048>050-060500-
NORTHEAST WISCONSIN

CITY           SKY/WX    TMP DP  RH WIND       PRES   REMARKS
ANTIGO         CLEAR     48  39  71 CALM      29.94S
SHAWANO        PTCLDY    60  34  37 W3        29.93S
OCONTO         PTCLDY    51  46  86 S5        29.92S
STURGEON BAY   CLEAR     46  36  66 S9        29.96S
GREEN BAY      CLOUDY    52  42  69 S5        29.93S
MANITOWOC      NOT AVBL
APPLETON       PTCLDY    52  36  54 VRB3      29.93R
CLINTONVILLE   PTCLDY    54  36  50 W3        29.93S
OSHKOSH        CLEAR     50  38  63 SW5       29.94S
$$

WIZ032>034-041-042-053>061-060500-
SOUTHWEST WISCONSIN

CITY           SKY/WX    TMP DP  RH WIND       PRES   REMARKS
LA CROSSE      CLEAR     60  44  55 S7        29.93S
SPARTA         PTCLDY    52  41  67 CALM      29.95F
VIROQUA        CLEAR     58  37  46 S6        29.96S
BOSCOBEL       CLOUDY    53  42  66 CALM      29.97S
PRAIRIE DU CHI CLOUDY    54  43  66 CALM      29.96F
PLATTEVILLE    CLEAR     55  37  51 S5        29.98S
$$

WIZ056-057-062-063-064-067-068-060500-
SOUTH CENTRAL WISCONSIN

CITY           SKY/WX    TMP DP  RH WIND       PRES   REMARKS
REEDSBURG      CLEAR     52  38  60 CALM      29.95F
BARABOO/DELLS  CLEAR     52  35  52 CALM      29.96S
LONE ROCK      NOT AVBL
MINERAL POINT  CLEAR     59  27  29 SW5       29.98R
MADISON        CLEAR     48  36  63 CALM      29.97R
MIDDLETON      CLEAR     46  40  79 CALM      29.97F
WATERTOWN      CLEAR     46  40  80 CALM      29.96R
MONROE         CLEAR     57  36  44 W10       29.97F
JANESVILLE     CLEAR     50  39  66 CALM      29.97
$$

WIZ051-052-058>065-066-070>072-060500-
SOUTHEAST WISCONSIN

CITY           SKY/WX    TMP DP  RH WIND       PRES   REMARKS
MILWAUKEE      PTCLDY    47  37  68 SW5       29.98S
WAUKESHA       CLEAR     46  37  71 CALM      29.98F
MILWAUKEE/TIMM CLEAR     46  36  66 CALM      29.98S
RACINE         CLEAR     43  36  76 SW3       29.99F
BURLINGTON     CLEAR     43  39  87 CALM      29.98S
KENOSHA        CLEAR     46  37  71 S5        29.98F
FOND DU LAC    CLEAR     45  38  76 S7        29.95S
SHEBOYGAN      CLEAR     43  37  79 S3        29.96S
WEST BEND      CLEAR     46  37  71 CALM      29.97S
JUNEAU         CLEAR     52  37  56 SW3       29.97R
$$

LSZ147-162-060500-
LAKE SUPERIOR

STATION/POSITION TIME  TEMP    WIND        PRES    WAVE
                       AIR SEA DIR/SP/G            HT/PER
                 (UTC) (F)     (DEG/KT/KT) (MB)    (FT/S)
W MID LAKE BUOY  0250   42 37  130/  8/  8 1010.1R   0
DEVILS ISLAND    0300   63     200/  6/  8 1008.7R
SAXON HARBOR     0340   65     190/  7/ 12 1009.1F
$$

LMZ867-665-643>646-060500-
LAKE MICHIGAN

STATION/POSITION TIME  TEMP    WIND        PRES    WAVE
                       AIR SEA DIR/SP/G            HT/PER
                 (UTC) (F)     (DEG/KT/KT) (MB)    (FT/S)
CHAMBERS ISLAND  0300   48     160/  3/  7 1013.9
N MID LAKE BUOY  0250   41 39  200/  8/  8 1014.1R
NORTHPORT PIER   0300   47     160/  2/  5 1013.5S
ALGOMA LAKESHORE 0300          200/  8/  8   N/A
KEWAUNEE LAKESHO 0300   47                 1013.5R
SHEBOYGAN LAKESH 0300   47     200/  6/  7 1015.4R
PORT WASHINGTON  0300   48     240/  3/  5 1015.9
S MID LAKE BUOY  0250   41 40  260/  6/  6 1015.4R   2/ 5
KENOSHA   LAKESH 0300   48     210/  5/  5 1015.6R
$$

TC  - TEMPERATURE IN CELSIUS
VSB - VISIBILITY IN STATUTE MILES
WCI - WIND CHILL INDEX
HX  - HEAT INDEX





USA.gov is the U.S. government's official web portal to all federal, state and local government web resources and services.